Overview Statistics Trail Chart Weather Telemetry Raw packets
 

This is the latest recevied weather packets stored in our database for station/object W0WC. If no packets are shown the sender has not sent any weather packets the latest 10 day(s).

<< 68 69 70 71 72 73 74 >>
Time Temp. Humidity Pressure Rain* Wind** Luminosity Snow
1788205474 38.33° C 27% 1016.6 hPa 0 mm - 659 W/m² -
1788205173 37.78° C 28% 1016.6 hPa 0 mm - 669 W/m² -
1788204869 37.78° C 29% 1016.6 hPa 0 mm - 668 W/m² -
1788204564 37.78° C 28% 1016.7 hPa 0 mm - 681 W/m² -
1788204259 37.78° C 29% 1016.6 hPa 0 mm - 663 W/m² -
1788203954 37.78° C 29% 1016.9 hPa 0 mm - 672 W/m² -
1788203650 37.78° C 29% 1017.1 hPa 0 mm - 693 W/m² -
1788203346 37.22° C 30% 1016.8 hPa 0 mm - 711 W/m² -
1788203046 37.78° C 30% 1016.8 hPa 0 mm - 710 W/m² -
1788202745 37.78° C 30% 1017.2 hPa 0 mm - 717 W/m² -
1788202441 38.33° C 29% 1017.1 hPa 0 mm - 706 W/m² -
1788202140 37.78° C 29% 1017 hPa 0 mm - 714 W/m² -
1788201835 38.33° C 29% 1017 hPa 0 mm - 717 W/m² -
1788201531 37.22° C 30% 1017.2 hPa 0 mm - 704 W/m² -
1788201230 37.22° C 30% 1017.3 hPa 0 mm - 723 W/m² -
1788200930 37.78° C 30% 1017.2 hPa 0 mm - 724 W/m² -
1788200625 37.78° C 29% 1017.4 hPa 0 mm - 730 W/m² -
1788200320 37.22° C 31% 1017.4 hPa 0 mm - 725 W/m² -
1788200015 37.22° C 32% 1017.6 hPa 0 mm - 722 W/m² -
1788199710 37.22° C 31% 1017.5 hPa 0 mm - 722 W/m² -
1788199405 37.78° C 30% 1017.6 hPa 0 mm - 719 W/m² -
1788199104 37.22° C 32% 1017.8 hPa 0 mm - 711 W/m² -
1788198800 37.22° C 33% 1017.8 hPa 0 mm - 717 W/m² -
1788198496 37.22° C 32% 1017.6 hPa 0 mm - 715 W/m² -
1788198192 37.22° C 32% 1017.8 hPa 0 mm - 708 W/m² -

* Rain latest hour (hover to see other rain measurements)
** Current wind speed in m/s (hover to see current wind gust speed)